[[{"header":{"parameterUnit":"m.s-1","parameterCategory":1,"la1":30.2991,"la2":30.254,"lo1":-89.0895,"lo2":-89.0444,"dy":0.0017,"dx":0.0017,"nx":28,"ny":28,"refTime":"2025-03-13T03:00:00:Z","depth":0,"parameterNumber":2,"parameterNumberName":"U-component_of_WINDS"},"data":[0,0,0,0,0,0,0,0,0,0,0,0,0,0,0,0,0,0,0,0,0,0,0,0,0,0,0,0,0,0,0,0,0,0,0,0,0,0,0,0,0,0,0,0,0,0,0,0,0,0,0,0,0,0,0,0,0,0,-4.8241,-4.8244,0,-4.8473,-4.8476,-4.8479,-4.8536,-4.8535,-4.8533,-4.8532,-4.8769,-4.8776,-4.8784,0,0,0,0,0,0,0,0,0,0,0,0,0,-4.7847,-4.7854,-4.8241,-4.8244,-4.8247,-4.8473,-4.8476,-4.8479,-4.8536,-4.8535,-4.8533,-4.8531,-4.8766,-4.8775,-4.8785,0,0,0,0,0,0,0,0,0,0,0,0,0,-4.8043,-4.7857,-4.8241,-4.8303,-4.8311,-4.8472,-4.8476,-4.848,-4.8537,-4.8535,-4.8532,-4.853,-4.8763,-4.8774,-4.8786,-4.8902,0,0,-4.8821,-4.8826,0,0,0,0,0,0,0,0,-4.8032,-4.8057,-4.8291,-4.8299,-4.8308,-4.8474,-4.8424,-4.8622,-4.8537,-4.8451,-4.8532,-4.8529,-4.8672,-4.8691,-4.874,-4.8913,-4.8923,-4.8822,-4.8829,-4.8834,-4.8837,0,0,0,0,0,0,0,-4.8018,-4.8048,-4.8333,-4.8294,-4.8304,-4.8319,-4.8344,-4.8462,-4.8571,-4.8458,-4.8463,-4.849,-4.8677,-4.8728,-4.8746,-4.8927,-4.8822,-4.8832,-4.8839,-4.8844,-4.9208,-4.9211,0,0,0,0,0,0,-4.7994,-4.8036,-4.8326,-4.834,-4.8161,-4.8328,-4.8356,-4.8423,-4.857,-4.8591,-4.8491,-4.8492,-4.871,-4.8732,-4.8754,-4.89,-4.8834,-4.8845,-4.8852,-4.9205,-4.9209,-4.9212,0,0,0,0,0,0,-4.7985,-4.8019,-4.8316,-4.8189,-4.8228,-4.8337,-4.8411,-4.8428,-4.848,-4.8595,-4.8615,-4.8524,-4.8709,-4.8738,-4.8865,-4.8909,-4.885,-4.8861,-4.9202,-4.9206,-4.921,-4.9192,0,0,0,0,0,0,-4.7974,-4.8016,-4.8061,-4.819,-4.8235,-4.8423,-4.8414,-4.8435,-4.85,-4.8502,-4.8631,-4.865,-4.8709,-4.8847,-4.8877,-4.8924,-4.887,-4.9199,-4.9204,-4.9209,-4.9189,-4.9195,-4.9199,0,0,0,0,0,-4.7959,-4.8046,-4.8063,-4.8097,-4.8294,-4.8425,-4.8451,-4.8517,-4.8503,-4.855,-4.8624,-4.8646,-4.89,-4.886,-4.8893,-4.8944,-4.9196,-4.9202,-4.9208,-4.9186,-4.9193,-4.9199,0,0,0,0,0,0,-4.7919,-4.8064,-4.8084,-4.8215,-4.8308,-4.8435,-4.8495,-4.8523,-4.8621,-4.8619,-4.8697,-4.8725,-4.8847,-4.8909,-4.8862,-4.9065,-4.9048,-4.9061,-4.902,-4.9027,-4.9033,-4.9014,-4.8879,0,0,0,0,0,-4.7925,-4.802,-4.8142,-4.8246,-4.8292,-4.8385,-4.8445,-4.8488,-4.8587,-4.8626,-4.871,-4.8804,-4.8905,-4.897,-4.907,-4.9199,-4.9227,-4.9251,-4.9256,-4.926,-4.9269,-4.9342,-4.9354,-4.9232,-4.9232,-4.9232,0,0,-4.7939,-4.803,-4.8085,-4.824,-4.8317,-4.8413,-4.8418,-4.852,-4.8592,-4.8642,-4.8766,-4.8831,-4.8942,-4.9071,-4.9132,-4.9126,-4.931,-4.9268,-4.927,-4.9278,-4.935,-4.9361,-4.9371,-4.9236,-4.9235,-4.9235,0,0,-4.8013,-4.8092,-4.8187,-4.8264,-4.838,-4.8443,-4.8465,-4.8589,-4.8634,-4.8761,-4.88,-4.8888,-4.906,-4.9138,-4.9199,-4.9305,-4.9329,-4.9335,-4.9362,-4.9432,-4.9442,-4.9451,-4.9487,-4.9499,-4.9345,-4.9345,-4.9345,0,-4.8016,-4.8163,-4.8233,-4.8333,-4.84,-4.845,-4.8547,-4.8619,-4.8761,-4.8806,-4.8798,-4.9016,-4.9094,-4.9241,-4.9267,-4.9316,-4.9344,-4.932,-4.9435,-4.9444,-4.9454,-4.9489,-4.9503,-4.9345,-4.9345,-4.9345,-4.9345,0,-4.8159,-4.8261,-4.8324,-4.846,-4.8535,-4.8633,-4.8718,-4.8785,-4.8822,-4.8885,-4.9013,-4.911,-4.9229,-4.9268,-4.9305,-4.9421,-4.9413,-4.9419,-4.9403,-4.9464,-4.9499,-4.9513,-4.9345,-4.9345,-4.9345,-4.9345,0,0,-4.8213,-4.8388,-4.8409,-4.8472,-4.8605,-4.8684,-4.8785,-4.8902,-4.8958,-4.9055,-4.9141,-4.9287,-4.9293,-4.9363,-4.941,-4.9472,-4.9548,-4.947,-4.9474,-4.948,-4.968,-4.9673,-4.9688,-4.9566,-4.9569,-4.9571,-4.967,0,-4.8302,-4.8483,-4.855,-4.8699,-4.8793,-4.8843,-4.8931,-4.9022,-4.9083,-4.9173,-4.9241,-4.9343,-4.9344,-4.9387,-4.945,-4.9525,-4.9589,-4.9519,-4.9645,-4.9649,-4.9614,-4.9707,-4.97,-4.9789,-4.9685,-4.9687,-4.9689,0,-4.8431,-4.8529,-4.8687,-4.8808,-4.885,-4.8928,-4.9041,-4.9126,-4.923,-4.9271,-4.935,-4.9393,-4.95,-4.9479,-4.9628,-4.9579,-4.9635,-4.9679,-4.9685,-4.9697,-4.9671,-4.972,-4.9819,-4.9832,-4.9711,-4.9709,-4.9708,0,-4.8452,-4.8625,-4.8741,-4.8794,-4.8938,-4.8991,-4.9054,-4.9156,-4.9223,-4.9322,-4.9366,-4.9476,-4.9536,-4.962,-4.9692,-4.967,-4.9834,-4.9819,-4.987,-4.9868,-4.99,-4.9897,-5.0008,-4.9939,-4.9939,-4.9939,-4.9938,0,-4.8544,-4.8638,-4.8753,-4.8824,-4.8931,-4.9008,-4.9112,-4.9178,-4.9269,-4.9354,-4.9405,-4.9484,-4.9574,-4.9665,-4.9722,-4.9836,-4.9863,-4.9899,-4.9912,-4.9893,-4.9888,-4.9929,-4.9924,-4.9942,-4.9942,-4.9941,-4.994,0,-4.8585,-4.8666,-4.8796,-4.8923,-4.8957,-4.903,-4.9138,-4.921,-4.9275,-4.9382,-4.9412,-4.9513,-4.9623,-4.9703,-4.9845,-4.9883,-5.0004,-5.0019,-4.9969,-4.9975,-5.0021,-5.0015,-5.0161,-5.0184,-5.0101,-5.0102,-5.0102,0,-4.8637,-4.8711,-4.8846,-4.8907,-4.8969,-4.9067,-4.9135,-4.9213,-4.9282,-4.9407,-4.9463,-4.9576,-4.9671,-4.9844,-4.993,-5.0039,-5.0055,-5.0099,-5.0072,-5.005,-5.0054,-5.0048,-5.0056,-5.0102,-5.0103,-5.0103,-5.0103,0,-4.8722,-4.8758,-4.8854,-4.8965,-4.9045,-4.9136,-4.9228,-4.9275,-4.9369,-4.9444,-4.9557,-4.963,-4.9775,-4.9887,-5.0004,-5.0069,-5.0102,-5.0112,-5.0129,-5.0109,-5.0076,-5.0093,-4.9977,-5.0107,-5.0107,-5.0107,-5.0106,-5.0106,-4.877,-4.8837,-4.8942,-4.9048,-4.9126,-4.921,-4.9283,-4.9358,-4.9453,-4.9577,-4.9618,-4.9734,-4.9838,-4.9999,-5.0065,-5.0157,-5.0156,-5.0181,-5.0188,-5.0192,-5.019,-5.0063,-5.0179,-5.0179,-5.0179,-5.0179,-5.0179,0,-4.8855,-4.8926,-4.9022,-4.9149,-4.9232,-4.9257,-4.936,-4.9428,-4.9529,-4.9623,-4.9715,-4.9845,-4.9953,-5.0049,-5.0162,-5.0217,-5.0235,-5.0244,-5.024,-5.0254,-5.0185,-5.0158,-5.0227,-5.0227,-5.0227,-5.0227,-5.0227,-5.0227,-4.891,-4.9025,-4.9074,-4.9229,-4.9299,-4.9413,-4.947,-4.9548,-4.9623,-4.9766,-4.9856,-4.9918,-5.0013,-5.0133,-5.0234,-5.0259,-5.0297,-5.0302,-5.0331,-5.0265,-5.0259,-5.0253,-5.0228,-5.0311,-5.0311,-5.0392,-5.0393,-5.0393]},{"header":{"parameterUnit":"m.s-1","parameterCategory":1,"la1":30.2991,"la2":30.254,"lo1":-89.0895,"lo2":-89.0444,"dy":0.0017,"dx":0.0017,"nx":28,"ny":28,"refTime":"2025-03-13T03:00:00:Z","depth":0,"parameterNumber":3,"parameterNumberName":"V-component_of_WINDS"},"data":[0,0,0,0,0,0,0,0,0,0,0,0,0,0,0,0,0,0,0,0,0,0,0,0,0,0,0,0,0,0,0,0,0,0,0,0,0,0,0,0,0,0,0,0,0,0,0,0,0,0,0,0,0,0,0,0,0,0,4.7254,4.7256,0,4.739,4.7392,4.7393,4.7443,4.7442,4.7442,4.7441,4.7578,4.7582,4.7586,0,0,0,0,0,0,0,0,0,0,0,0,0,4.7037,4.7041,4.7254,4.7256,4.7258,4.739,4.7392,4.7394,4.7443,4.7442,4.7442,4.7441,4.7577,4.7582,4.7587,0,0,0,0,0,0,0,0,0,0,0,0,0,4.7148,4.7042,4.7254,4.7298,4.7303,4.739,4.7392,4.7394,4.7443,4.7442,4.7441,4.7441,4.7575,4.7581,4.7587,4.7639,0,0,4.7606,4.7609,0,0,0,0,0,0,0,0,4.7142,4.7156,4.729,4.7295,4.7301,4.7399,4.7366,4.7476,4.7443,4.739,4.7441,4.744,4.7519,4.753,4.7557,4.7645,4.7651,4.7607,4.761,4.7613,4.7615,0,0,0,0,0,0,0,4.7134,4.715,4.7308,4.7292,4.7299,4.7311,4.7326,4.7387,4.7457,4.7394,4.7398,4.7414,4.7522,4.7551,4.756,4.7653,4.7606,4.7612,4.7616,4.7618,4.7793,4.7794,0,0,0,0,0,0,4.7119,4.7144,4.7304,4.7312,4.7218,4.7316,4.7332,4.7368,4.7456,4.7469,4.7414,4.7416,4.7541,4.7553,4.7565,4.7633,4.7613,4.7619,4.7622,4.7792,4.7794,4.7795,0,0,0,0,0,0,4.7114,4.7133,4.7298,4.7229,4.7251,4.732,4.736,4.7371,4.74,4.7471,4.7484,4.7431,4.7541,4.7557,4.7621,4.7639,4.7621,4.7627,4.7791,4.7793,4.7794,4.7768,0,0,0,0,0,0,4.7108,4.7131,4.7151,4.7229,4.7254,4.7352,4.7361,4.7374,4.7411,4.7414,4.749,4.7502,4.7541,4.7612,4.7627,4.7647,4.7632,4.779,4.7792,4.7794,4.7768,4.7769,4.777,0,0,0,0,0,4.71,4.7137,4.7152,4.7171,4.7281,4.7352,4.7367,4.7412,4.7412,4.7433,4.7479,4.7499,4.7634,4.7618,4.7636,4.7657,4.7789,4.7791,4.7794,4.7768,4.7769,4.777,0,0,0,0,0,0,4.7058,4.7148,4.7165,4.7229,4.7283,4.7361,4.7389,4.7411,4.7466,4.7466,4.7519,4.7536,4.7597,4.7633,4.7614,4.7713,4.7713,4.7719,4.7687,4.7689,4.7689,4.768,4.7637,0,0,0,0,0,4.7057,4.7107,4.7183,4.7232,4.7258,4.7319,4.7351,4.7382,4.7439,4.7462,4.7513,4.7567,4.7623,4.7657,4.7712,4.7773,4.7792,4.7797,4.7798,4.7798,4.7803,4.7841,4.7845,4.7802,4.7802,4.7802,0,0,4.7054,4.7109,4.7138,4.7225,4.7271,4.7322,4.7338,4.7391,4.743,4.747,4.7535,4.7574,4.7638,4.7702,4.7733,4.7735,4.7819,4.7801,4.7801,4.7806,4.7843,4.7847,4.7851,4.7804,4.7803,4.7803,0,0,4.7075,4.7121,4.7169,4.7214,4.7283,4.7323,4.7334,4.741,4.7438,4.7503,4.7535,4.7582,4.7675,4.7721,4.7756,4.7796,4.7818,4.7812,4.7817,4.7852,4.7856,4.7859,4.7875,4.788,4.7817,4.7816,4.7816,0,4.7063,4.7142,4.719,4.7243,4.7281,4.7321,4.737,4.7411,4.7493,4.7519,4.752,4.7639,4.7685,4.7761,4.7772,4.7798,4.7813,4.7804,4.7852,4.7855,4.7859,4.7875,4.7881,4.7815,4.7816,4.7816,4.7816,0,4.7124,4.7179,4.7209,4.7289,4.7331,4.7381,4.7437,4.7473,4.75,4.754,4.7607,4.7664,4.7732,4.7752,4.7778,4.7832,4.7832,4.7841,4.7842,4.7861,4.7878,4.7884,4.7814,4.7814,4.7815,4.7815,0,0,4.7123,4.7231,4.7241,4.7279,4.7358,4.7402,4.7454,4.7521,4.7552,4.7608,4.7654,4.7733,4.7743,4.7783,4.7814,4.7846,4.7877,4.7852,4.7854,4.7856,4.7942,4.7936,4.7942,4.7891,4.7892,4.7894,4.7938,0,4.7156,4.7252,4.7298,4.7374,4.7426,4.7466,4.7512,4.7566,4.7605,4.7655,4.7698,4.7754,4.7762,4.7787,4.7819,4.7866,4.7895,4.7863,4.7935,4.7937,4.7919,4.795,4.7943,4.7982,4.7944,4.7945,4.7946,0,4.7207,4.7265,4.7347,4.7423,4.7446,4.7487,4.7553,4.76,4.7662,4.7689,4.7734,4.7766,4.7823,4.7819,4.7899,4.7877,4.7909,4.7936,4.7939,4.7949,4.7944,4.7962,4.7995,4.8001,4.7956,4.7955,4.7954,0,4.72,4.7298,4.7361,4.7392,4.7481,4.7509,4.7547,4.7609,4.7647,4.7705,4.7731,4.7793,4.7828,4.7876,4.7924,4.7917,4.8,4.8,4.8024,4.8023,4.8041,4.804,4.8081,4.8059,4.8059,4.8059,4.8059,0,4.7234,4.7283,4.7359,4.7397,4.7454,4.7506,4.7561,4.7602,4.7657,4.7704,4.7741,4.7785,4.7844,4.7896,4.7933,4.7995,4.801,4.8033,4.8043,4.8031,4.8028,4.8053,4.8053,4.806,4.806,4.806,4.8059,0,4.7236,4.7289,4.736,4.7439,4.746,4.7498,4.7567,4.7606,4.7647,4.7707,4.7724,4.7789,4.7852,4.7904,4.7985,4.801,4.8075,4.8085,4.8054,4.806,4.8082,4.808,4.8143,4.8155,4.8122,4.8122,4.8123,0,4.7254,4.7293,4.7377,4.7412,4.7451,4.7506,4.7546,4.7599,4.7638,4.7714,4.7744,4.781,4.7865,4.7963,4.8017,4.808,4.8093,4.8111,4.8103,4.8091,4.8096,4.8094,4.8099,4.8112,4.8112,4.8112,4.8112,0,4.7281,4.7306,4.7362,4.7429,4.7475,4.753,4.7585,4.7611,4.7674,4.7717,4.7783,4.7826,4.791,4.7975,4.8044,4.8084,4.8109,4.8114,4.8124,4.8113,4.8094,4.8106,4.8058,4.8113,4.8113,4.8113,4.8113,4.8113,4.7293,4.7331,4.7397,4.7459,4.7506,4.7557,4.7599,4.7646,4.7702,4.7776,4.7803,4.787,4.7934,4.8029,4.8069,4.8123,4.8126,4.8138,4.8142,4.8145,4.8144,4.8084,4.8135,4.8135,4.8135,4.8135,4.8135,0,4.7324,4.7369,4.7426,4.7503,4.7552,4.7572,4.7635,4.7675,4.7734,4.7791,4.7845,4.7921,4.7985,4.8045,4.8111,4.8143,4.8156,4.8159,4.8157,4.8167,4.8137,4.8123,4.8147,4.8147,4.8147,4.8147,4.8147,4.8147,4.7346,4.7412,4.7445,4.7534,4.7579,4.7646,4.768,4.7728,4.7774,4.7858,4.7911,4.795,4.8009,4.8081,4.814,4.8156,4.818,4.818,4.8199,4.817,4.8168,4.8167,4.8154,4.8184,4.8184,4.8225,4.8225,4.8225]}]]